Location: Tel Aviv
(32.0670°N, 34.7670°E)
Time: 10:07:12
(UTC+02:00)

Vanguard 2 - Visible Passes

Search period start: 05 December 2023 00:00
Search period end: 15 December 2023 00:00
Orbit: 552 x 2923 km, 32.9° (Epoch: 04 December)

Date Brightness Start Highest point End Pass type
(mag) Time Alt. Az. Time Alt. Az. Time Alt. Az.
05 Dec 9.9 04:27:10 11° SSW 04:27:10 11° SSW 04:27:40 10° SSW visible
05 Dec 11.0 17:34:30 10° SSW 17:48:38 33° SE 17:59:25 17° E visible
05 Dec 10.1 19:42:44 10° SW 20:00:21 65° SSE 20:00:39 65° SSE visible
05 Dec 11.2 21:55:17 10° W 22:01:53 29° W 22:01:53 29° W visible
06 Dec 10.8 17:48:52 10° SSW 18:04:04 41° SE 18:14:10 23° E visible
06 Dec 10.1 19:58:12 10° WSW 20:15:24 73° S 20:15:24 73° S visible
06 Dec 11.4 22:11:18 10° W 22:16:38 24° W 22:16:38 24° W visible
07 Dec 10.6 18:03:35 10° SW 18:19:32 50° SSE 18:28:54 29° E visible
07 Dec 10.1 20:13:50 10° WSW 20:30:07 75° SW 20:30:07 75° SW visible
07 Dec 11.5 22:27:21 10° W 22:31:21 20° W 22:31:21 20° W visible
08 Dec 10.4 18:18:36 10° SW 18:35:05 59° SSE 18:43:35 35° E visible
08 Dec 10.2 20:29:38 10° WSW 20:44:49 70° WSW 20:44:49 70° WSW visible
08 Dec 11.7 22:43:23 10° W 22:46:02 17° W 22:46:02 17° W visible
09 Dec 10.3 18:33:50 10° SW 18:50:42 67° SSE 18:58:15 42° E visible
09 Dec 10.3 20:45:32 10° W 20:59:28 62° W 20:59:28 62° W visible
09 Dec 11.8 22:59:24 10° W 23:00:41 13° W 23:00:41 13° W visible
10 Dec 10.9 16:40:48 10° SSW 16:54:34 42° SE 17:10:24 10° E visible
10 Dec 10.2 18:49:17 10° WSW 19:06:25 76° SSE 19:12:52 49° E visible
10 Dec 10.5 21:01:30 10° W 21:14:05 55° W 21:14:05 55° W visible
11 Dec 10.7 16:55:34 10° SW 17:09:55 50° SE 17:26:15 11° ENE visible
11 Dec 10.1 19:04:54 10° WSW 19:22:14 82° SSE 19:27:28 57° E visible
11 Dec 10.7 21:17:29 10° W 21:28:41 47° W 21:28:41 47° W visible
12 Dec 10.5 17:10:36 10° SW 17:25:22 60° SSE 17:40:49 15° ENE visible
12 Dec 10.0 19:20:39 10° WSW 19:38:08 88° SSE 19:42:02 65° E visible
12 Dec 10.9 21:33:29 10° W 21:43:15 41° W 21:43:15 41° W visible
13 Dec 10.4 17:25:51 10° SW 17:40:55 68° SSE 17:55:23 19° ENE visible
13 Dec 10.0 19:36:29 10° W 19:54:05 89° N 19:56:36 74° E visible
13 Dec 11.1 21:49:26 10° W 21:57:48 35° W 21:57:48 35° W visible
14 Dec 10.3 17:41:17 10° WSW 17:56:37 77° SSE 18:09:55 23° E visible
14 Dec 10.0 19:52:23 10° W 20:10:05 87° N 20:11:08 83° ENE visible
14 Dec 11.2 22:05:22 10° WNW 22:12:21 30° W 22:12:21 30° W visible
